GW3562 Weather Reports


time (UTC)temp
C
wind
direction
speed
KPH
gust
KPH
rain 1hr
cm
rain 24hr
cm
rain mn
cm
humidity
%
barometer
mb
20260509132629 12 275 0.0 8.0 0.00 0.00 0.00 45 1014.9
20260509132125 12 25 1.6 12.9 0.00 0.00 0.00 44 1015.0
20260509131633 12 275 3.2 12.9 0.00 0.00 0.00 45 1015.1
20260509131528 12 282 0.0 4.8 0.00 0.00 0.00 44 1015.7
20260509131132 12 127 0.0 4.8 0.00 0.00 0.00 47 1015.1
20260509130655 11 277 0.0 6.4 0.00 0.00 0.00 48 1015.1
20260509130123 11 224 1.6 6.4 0.00 0.00 0.00 51 1015.2
20260509130036 11 294 0.0 6.4 0.00 0.00 0.00 51 1016.0
20260509125623 11 146 1.6 4.8 0.00 0.00 0.00 51 1015.1
20260509125132 10 259 0.0 6.4 0.00 0.00 0.00 56 1015.2
20260509124520 8 251 0.0 8.0 0.00 0.00 0.00 64 1016.1
20260509124145 8 221 0.0 6.4 0.00 0.00 0.00 68 1015.3
20260509123627 7 242 0.0 6.4 0.00 0.00 0.00 71 1015.3
20260509123130 6 147 1.6 6.4 0.00 0.00 0.00 76 1015.4
20260509123100 6 253 0.0 6.4 0.00 0.00 0.00 78 1016.3
20260509122643 6 351 0.0 0.0 0.00 0.00 0.00 80 1015.5
20260509122119 5 351 0.0 0.0 0.00 0.00 0.00 81 1015.5
20260509121638 5 351 0.0 0.0 0.00 0.00 0.00 83 1015.5
20260509121543 4 351 0.0 0.0 0.00 0.00 0.00 83 1016.4
20260509121152 4 351 0.0 0.0 0.00 0.00 0.00 84 1015.4
20260509120641 3 351 0.0 0.0 0.00 0.00 0.00 86 1015.5
20260509120139 3 351 0.0 0.0 0.00 0.00 0.00 88 1015.6
20260509120032 3 351 0.0 0.0 0.00 0.00 0.00 88 1016.4
20260509115656 3 351 0.0 0.0 0.00 0.00 0.00 88 1015.6
20260509115158 2 351 0.0 0.0 0.00 0.00 0.00 89 1015.7
20260509114657 2 351 0.0 0.0 0.00 0.00 0.00 90 1015.7
20260509114606 2 351 0.0 0.0 0.00 0.00 0.00 90 1016.5
20260509114142 1 351 0.0 0.0 0.00 0.00 0.00 91 1015.7
20260509113705 1 351 0.0 0.0 0.00 0.00 0.00 91 1015.6
20260509113129 1 351 0.0 0.0 0.00 0.00 0.00 91 1015.7
20260509113024 1 351 0.0 0.0 0.00 0.00 0.00 91 1016.5
20260509112639 1 351 0.0 0.0 0.00 0.00 0.00 91 1015.7
20260509112156 1 351 0.0 0.0 0.00 0.00 0.00 91 1015.5
20260509111703 1 351 0.0 0.0 0.00 0.00 0.00 91 1015.5
20260509111512 0 351 0.0 0.0 0.00 0.00 0.00 91 1016.3
20260509111152 0 351 0.0 0.0 0.00 0.00 0.00 92 1015.5
20260509110646 0 351 0.0 0.0 0.00 0.00 0.00 92 1015.5
20260509110224 0 351 0.0 0.0 0.00 0.00 0.00 92 1015.5
20260509110000 0 351 0.0 0.0 0.00 0.00 0.00 92 1016.3
20260509105720 0 351 0.0 0.0 0.00 0.00 0.00 92 1015.5
20260509105148 0 351 0.0 0.0 0.00 0.00 0.00 92 1015.6
20260509104646 0 351 0.0 0.0 0.00 0.00 0.00 92 1015.6
20260509104536 0 351 0.0 0.0 0.00 0.00 0.00 92 1016.5
20260509104151 0 351 0.0 0.0 0.00 0.00 0.00 92 1015.6
20260509103642 0 351 0.0 0.0 0.00 0.00 0.00 92 1015.6
20260509103218 0 351 0.0 0.0 0.00 0.00 0.00 92 1015.6
20260509103008 0 351 0.0 0.0 0.00 0.00 0.00 92 1016.4
20260509102657 0 351 0.0 0.0 0.00 0.00 0.00 92 1015.4
20260509102159 0 351 0.0 0.0 0.00 0.00 0.00 91 1015.4
20260509101729 0 351 0.0 0.0 0.00 0.00 0.00 91 1015.3
20260509101512 0 351 0.0 0.0 0.00 0.00 0.00 91 1016.1
20260509101221 0 351 0.0 0.0 0.00 0.00 0.00 91 1015.3
20260509100652 0 351 0.0 0.0 0.00 0.00 0.00 90 1015.4
20260509100147 0 351 0.0 0.0 0.00 0.00 0.00 90 1015.4
20260509100043 0 351 0.0 0.0 0.00 0.00 0.00 90 1016.2
20260509095644 0 351 0.0 0.0 0.00 0.00 0.00 90 1015.4
20260509095150 0 351 0.0 0.0 0.00 0.00 0.00 90 1015.4
20260509094708 0 351 0.0 0.0 0.00 0.00 0.00 90 1015.2
20260509094557 0 351 0.0 0.0 0.00 0.00 0.00 90 1016.1
20260509094227 0 351 0.0 0.0 0.00 0.00 0.00 90 1015.2
20260509093651 0 351 0.0 0.0 0.00 0.00 0.00 90 1015.2
20260509093155 0 351 0.0 0.0 0.00 0.00 0.00 90 1015.1
20260509092656 0 351 0.0 0.0 0.00 0.00 0.00 90 1015.1
20260509092136 0 351 0.0 0.0 0.00 0.00 0.00 90 1015.0
20260509091643 0 351 0.0 0.0 0.00 0.00 0.00 90 1015.0
20260509091556 0 351 0.0 0.0 0.00 0.00 0.00 90 1015.8
20260509091158 0 351 0.0 0.0 0.00 0.00 0.00 90 1015.0
20260509090658 0 351 0.0 0.0 0.00 0.00 0.00 91 1014.9
20260509090138 0 351 0.0 0.0 0.00 0.00 0.00 91 1015.0
20260509090035 0 351 0.0 0.0 0.00 0.00 0.00 91 1015.8
20260509085701 0 351 0.0 0.0 0.00 0.00 0.00 91 1015.0
20260509085142 0 351 0.0 0.0 0.00 0.00 0.00 91 1014.9
20260509084647 0 351 0.0 0.0 0.00 0.00 0.00 91 1014.9
20260509084524 0 351 0.0 0.0 0.00 0.00 0.00 90 1015.7
20260509084145 0 351 0.0 0.0 0.00 0.00 0.00 90 1014.8
20260509083706 0 351 0.0 0.0 0.00 0.00 0.00 90 1014.8
20260509083142 0 351 0.0 0.0 0.00 0.00 0.00 90 1014.8
20260509083046 0 351 0.0 0.0 0.00 0.00 0.00 90 1015.6
20260509082658 0 351 0.0 0.0 0.00 0.00 0.00 90 1014.9
20260509082146 0 351 0.0 0.0 0.00 0.00 0.00 90 1014.9
20260509081710 0 351 0.0 0.0 0.00 0.00 0.00 90 1015.0
20260509081539 0 351 0.0 0.0 0.00 0.00 0.00 90 1015.8
20260509081156 0 351 0.0 0.0 0.00 0.00 0.00 89 1015.0
20260509080718 0 351 0.0 0.0 0.00 0.00 0.00 89 1015.0
20260509080151 0 351 0.0 0.0 0.00 0.00 0.00 89 1015.0
20260509080101 0 351 0.0 0.0 0.00 0.00 0.00 89 1015.8
20260509075638 0 351 0.0 0.0 0.00 0.00 0.00 89 1015.1
20260509075157 0 351 0.0 0.0 0.00 0.00 0.00 89 1015.1
20260509074656 0 351 0.0 0.0 0.00 0.00 0.00 89 1015.1
20260509074539 0 351 0.0 0.0 0.00 0.00 0.00 88 1015.9
20260509074153 0 351 0.0 0.0 0.00 0.00 0.00 88 1015.1
20260509073653 0 351 0.0 0.0 0.00 0.00 0.00 88 1015.1
20260509073156 0 351 0.0 0.0 0.00 0.00 0.00 88 1015.1
20260509073101 0 351 0.0 0.0 0.00 0.00 0.00 88 1016.0
20260509072633 0 351 0.0 0.0 0.00 0.00 0.00 88 1015.2
20260509072143 0 351 0.0 0.0 0.00 0.00 0.00 88 1015.2
20260509071656 0 351 0.0 0.0 0.00 0.00 0.00 88 1015.2
20260509071559 0 351 0.0 0.0 0.00 0.00 0.00 88 1016.1
20260509071141 0 351 0.0 0.0 0.00 0.00 0.00 88 1015.2
20260509070654 0 351 0.0 0.0 0.00 0.00 0.00 87 1015.2
20260509070200 0 351 0.0 0.0 0.00 0.00 0.00 87 1015.2
20260509070004 0 351 0.0 0.0 0.00 0.00 0.00 87 1016.1
20260509065646 0 351 0.0 0.0 0.00 0.00 0.00 87 1015.2
20260509065157 0 351 0.0 0.0 0.00 0.00 0.00 87 1015.2
20260509064721 0 351 0.0 0.0 0.00 0.00 0.00 86 1015.3
20260509064511 0 351 0.0 0.0 0.00 0.00 0.00 86 1016.0
20260509064157 0 351 0.0 0.0 0.00 0.00 0.00 86 1015.2
20260509063656 0 351 0.0 0.0 0.00 0.00 0.00 86 1015.2
20260509063157 0 351 0.0 0.0 0.00 0.00 0.00 85 1015.2
20260509063003 0 351 0.0 0.0 0.00 0.00 0.00 85 1016.0
20260509062644 0 351 0.0 0.0 0.00 0.00 0.00 85 1015.2
20260509062224 0 351 0.0 0.0 0.00 0.00 0.00 85 1015.2
20260509061648 0 351 0.0 0.0 0.00 0.00 0.00 84 1015.2
20260509061519 0 351 0.0 0.0 0.00 0.00 0.00 84 1016.0
20260509061140 0 351 0.0 0.0 0.00 0.00 0.00 85 1015.3
20260509060701 1 351 0.0 0.0 0.00 0.00 0.00 85 1015.3
20260509060145 1 351 0.0 0.0 0.00 0.00 0.00 85 1015.4
20260509060024 0 351 0.0 0.0 0.00 0.00 0.00 85 1016.2
20260509055649 1 351 0.0 0.0 0.00 0.00 0.00 84 1015.4
20260509055143 1 351 0.0 0.0 0.00 0.00 0.00 83 1015.4
20260509054647 1 351 0.0 0.0 0.00 0.00 0.00 83 1015.4
20260509054529 1 351 0.0 0.0 0.00 0.00 0.00 83 1016.2
20260509054148 1 351 0.0 0.0 0.00 0.00 0.00 82 1015.4
20260509053717 1 351 0.0 0.0 0.00 0.00 0.00 82 1015.4
20260509053146 1 351 0.0 0.0 0.00 0.00 0.00 82 1015.3
20260509053036 1 351 0.0 0.0 0.00 0.00 0.00 82 1016.1
20260509052710 1 351 0.0 0.0 0.00 0.00 0.00 81 1015.3
20260509052140 1 351 0.0 0.0 0.00 0.00 0.00 81 1015.3
20260509051650 1 351 0.0 0.0 0.00 0.00 0.00 81 1015.2
20260509051534 1 351 0.0 0.0 0.00 0.00 0.00 81 1016.0
20260509051208 1 351 0.0 0.0 0.00 0.00 0.00 79 1015.3
20260509050640 2 351 0.0 0.0 0.00 0.00 0.00 79 1015.2
20260509050200 2 351 0.0 0.0 0.00 0.00 0.00 79 1015.2
20260509050105 1 351 0.0 0.0 0.00 0.00 0.00 79 1016.0
20260509045651 2 351 0.0 0.0 0.00 0.00 0.00 79 1015.2
20260509045203 2 351 0.0 0.0 0.00 0.00 0.00 78 1015.2
20260509044636 2 351 0.0 0.0 0.00 0.00 0.00 78 1015.2
20260509044528 2 351 0.0 0.0 0.00 0.00 0.00 78 1016.0
20260509044211 2 351 0.0 0.0 0.00 0.00 0.00 78 1015.2
20260509043711 2 351 0.0 0.0 0.00 0.00 0.00 77 1015.2
20260509043157 2 351 0.0 0.0 0.00 0.00 0.00 77 1015.2
20260509043054 2 351 0.0 0.0 0.00 0.00 0.00 77 1015.9
20260509042711 2 351 0.0 0.0 0.00 0.00 0.00 76 1015.2
20260509042129 2 351 0.0 0.0 0.00 0.00 0.00 76 1015.2
20260509041643 2 351 0.0 0.0 0.00 0.00 0.00 75 1015.2
20260509041528 2 351 0.0 0.0 0.00 0.00 0.00 75 1015.9
20260509041144 3 351 0.0 0.0 0.00 0.00 0.00 74 1015.1
20260509040637 3 351 0.0 0.0 0.00 0.00 0.00 73 1015.2
20260509040216 3 351 0.0 0.0 0.00 0.00 0.00 73 1015.1
20260509040100 2 351 0.0 0.0 0.00 0.00 0.00 73 1015.8
20260509035639 3 351 0.0 0.0 0.00 0.00 0.00 73 1015.1
20260509035157 3 351 0.0 0.0 0.00 0.00 0.00 73 1015.0
20260509034639 3 351 0.0 0.0 0.00 0.00 0.00 73 1015.0
20260509034542 3 351 0.0 0.0 0.00 0.00 0.00 73 1015.7
20260509034153 3 351 0.0 0.0 0.00 0.00 0.00 73 1015.0
20260509033655 3 351 0.0 0.0 0.00 0.00 0.00 74 1015.0
20260509033139 3 351 0.0 0.0 0.00 0.00 0.00 73 1015.0
20260509033018 3 351 0.0 0.0 0.00 0.00 0.00 73 1015.7
20260509032659 3 351 0.0 0.0 0.00 0.00 0.00 72 1015.0
20260509032143 3 351 0.0 0.0 0.00 0.00 0.00 72 1014.9
20260509031647 3 351 0.0 0.0 0.00 0.00 0.00 71 1014.8
20260509031522 3 351 0.0 0.0 0.00 0.00 0.00 71 1015.6
20260509031155 4 351 0.0 0.0 0.00 0.00 0.00 71 1014.8
20260509030645 4 351 0.0 0.0 0.00 0.00 0.00 70 1014.8
20260509030137 4 351 0.0 0.0 0.00 0.00 0.00 69 1014.7
20260509030055 3 351 0.0 0.0 0.00 0.00 0.00 69 1015.4
20260509025643 4 351 0.0 0.0 0.00 0.00 0.00 69 1014.7
20260509025148 4 351 0.0 0.0 0.00 0.00 0.00 69 1014.7
20260509024635 5 351 0.0 0.0 0.00 0.00 0.00 68 1014.7
20260509024539 4 351 0.0 0.0 0.00 0.00 0.00 68 1015.4
20260509024204 5 351 0.0 0.0 0.00 0.00 0.00 65 1014.7
20260509023700 5 351 0.0 0.0 0.00 0.00 0.00 64 1014.7
20260509023149 5 351 0.0 0.0 0.00 0.00 0.00 66 1014.6
20260509023030 5 351 0.0 0.0 0.00 0.00 0.00 66 1015.3
20260509022640 5 351 0.0 0.0 0.00 0.00 0.00 66 1014.6
20260509022138 5 351 0.0 0.0 0.00 0.00 0.00 66 1014.6
20260509021636 5 351 0.0 0.0 0.00 0.00 0.00 65 1014.6
20260509021130 5 351 0.0 0.0 0.00 0.00 0.00 64 1014.6
20260509020624 5 351 0.0 0.0 0.00 0.00 0.00 65 1014.6
20260509020142 5 351 0.0 0.0 0.00 0.00 0.00 64 1014.5
20260509020040 5 351 0.0 0.0 0.00 0.00 0.00 64 1015.2
20260509015624 5 351 0.0 0.0 0.00 0.00 0.00 63 1014.4
20260509015123 6 351 0.0 0.0 0.00 0.00 0.00 64 1014.4
20260509014641 6 351 0.0 0.0 0.00 0.00 0.00 65 1014.3
20260509014541 6 351 0.0 0.0 0.00 0.00 0.00 66 1015.1
20260509014129 6 351 0.0 0.0 0.00 0.00 0.00 66 1014.2
20260509013630 6 351 0.0 0.0 0.00 0.00 0.00 64 1014.2
20260509013130 6 351 0.0 0.0 0.00 0.00 0.00 64 1014.2
20260509013042 6 351 0.0 0.0 0.00 0.00 0.00 66 1014.9
20260509012141 6 351 0.0 0.0 0.00 0.00 0.00 63 1014.1
20260509011619 6 351 0.0 0.0 0.00 0.00 0.00 63 1014.0
20260509011515 6 351 0.0 0.0 0.00 0.00 0.00 65 1014.7
20260509011131 6 351 0.0 0.0 0.00 0.00 0.00 64 1014.0
20260509010627 7 351 0.0 0.0 0.00 0.00 0.00 65 1013.9
20260509010130 7 351 0.0 0.0 0.00 0.00 0.00 63 1013.8
20260509010044 6 351 0.0 0.0 0.00 0.00 0.00 62 1014.5
20260509005607 7 351 0.0 0.0 0.00 0.00 0.00 63 1013.7
20260509005125 7 351 0.0 0.0 0.00 0.00 0.00 63 1013.7
20260509004610 7 351 0.0 0.0 0.00 0.00 0.00 61 1013.5
20260509004544 7 351 0.0 0.0 0.00 0.00 0.00 61 1014.3
20260509004156 7 351 0.0 0.0 0.00 0.00 0.00 61 1013.5
20260509003629 7 351 0.0 0.0 0.00 0.00 0.00 59 1013.4
20260509003132 8 351 0.0 0.0 0.00 0.00 0.00 59 1013.3
20260509003029 7 351 0.0 0.0 0.00 0.00 0.00 59 1014.0
20260509002643 8 351 0.0 0.0 0.00 0.00 0.00 56 1013.3
20260509002148 8 351 0.0 0.0 0.00 0.00 0.00 55 1013.2
20260509001638 8 351 0.0 0.0 0.00 0.00 0.00 55 1013.3
20260509001608 8 351 0.0 0.0 0.00 0.00 0.00 55 1014.0
20260509001217 8 351 0.0 0.0 0.00 0.00 0.00 53 1013.2
20260509000626 8 351 0.0 0.0 0.00 0.00 0.00 55 1013.1
20260509000128 8 351 0.0 0.0 0.00 0.00 0.00 56 1013.2
20260509000049 8 351 0.0 0.0 0.00 0.00 0.00 56 1013.9
20260508235619 9 351 0.0 0.0 0.00 0.00 0.00 55 1013.1
20260508235126 9 351 0.0 0.0 0.00 0.00 0.00 55 1013.1
20260508234629 9 351 0.0 0.0 0.00 0.00 0.00 55 1012.9
20260508234528 8 351 0.0 0.0 0.00 0.00 0.00 55 1013.7
20260508234142 9 351 0.0 0.0 0.00 0.00 0.00 53 1012.9
20260508233617 9 351 0.0 0.0 0.00 0.00 0.00 54 1012.9
20260508233117 10 351 0.0 0.0 0.00 0.00 0.00 50 1012.9
20260508233033 9 351 0.0 0.0 0.00 0.00 0.00 50 1013.6
20260508232619 10 351 0.0 0.0 0.00 0.00 0.00 51 1012.8
20260508232124 10 351 0.0 0.0 0.00 0.00 0.00 49 1012.8
20260508231627 10 351 0.0 0.0 0.00 0.00 0.00 47 1012.8
20260508231559 9 351 0.0 0.0 0.00 0.00 0.00 47 1013.6
20260508231132 10 351 0.0 0.0 0.00 0.00 0.00 46 1012.7
20260508230620 10 351 0.0 0.0 0.00 0.00 0.00 46 1012.7
20260508230145 10 351 0.0 0.0 0.00 0.00 0.00 47 1012.7
20260508230028 10 351 0.0 0.0 0.00 0.00 0.00 46 1013.4
20260508225625 10 351 0.0 0.0 0.00 0.00 0.00 45 1012.6
20260508225133 10 349 0.0 0.0 0.00 0.00 0.00 45 1012.6
20260508224630 10 349 0.0 0.0 0.00 0.00 0.00 48 1012.7
20260508224542 10 349 0.0 0.0 0.00 0.00 0.00 49 1013.4
20260508224126 10 349 0.0 0.0 0.00 0.00 0.00 44 1012.7
20260508223623 10 349 0.0 0.0 0.00 0.00 0.00 43 1012.7
20260508223123 10 349 0.0 8.0 0.00 0.00 0.00 43 1012.7
20260508223033 10 344 0.0 8.0 0.00 0.00 0.00 43 1013.4
20260508222616 10 349 1.6 6.4 0.00 0.00 0.00 43 1012.8
20260508222133 10 346 1.6 4.8 0.00 0.00 0.00 42 1012.8
20260508221647 10 346 0.0 0.0 0.00 0.00 0.00 43 1012.7
20260508221522 10 346 0.0 0.0 0.00 0.00 0.00 44 1013.4
20260508221127 10 346 0.0 8.0 0.00 0.00 0.00 42 1012.7
20260508220629 10 346 1.6 8.0 0.00 0.00 0.00 44 1012.7
20260508220014 10 344 0.0 8.0 0.00 0.00 0.00 44 1013.3
20260508215640 10 344 3.2 8.0 0.00 0.00 0.00 44 1012.6
20260508215120 10 341 0.0 8.0 0.00 0.00 0.00 44 1012.6
20260508214613 10 341 1.6 9.7 0.00 0.00 0.00 42 1012.6
20260508214537 10 341 1.6 9.7 0.00 0.00 0.00 42 1013.3
20260508214121 10 343 1.6 9.7 0.00 0.00 0.00 43 1012.6
20260508213640 10 341 1.6 9.7 0.00 0.00 0.00 43 1012.6
20260508213116 10 334 1.6 9.7 0.00 0.00 0.00 43 1012.7
20260508213028 10 334 0.0 9.7 0.00 0.00 0.00 42 1013.3
20260508212621 10 4 0.0 11.3 0.00 0.00 0.00 44 1012.5
20260508212132 10 350 3.2 11.3 0.00 0.00 0.00 41 1012.6
20260508211629 10 337 1.6 11.3 0.00 0.00 0.00 44 1012.5
20260508210620 10 358 4.8 12.9 0.00 0.00 0.00 42 1012.5
20260508210135 10 348 0.0 9.7 0.00 0.00 0.00 42 1012.4
20260508210001 10 65 0.0 9.7 0.00 0.00 0.00 41 1013.1
20260508205633 11 342 1.6 9.7 0.00 0.00 0.00 42 1012.5
20260508205123 11 360 1.6 9.7 0.00 0.00 0.00 43 1012.4
20260508204620 10 346 1.6 8.0 0.00 0.00 0.00 41 1012.4
20260508204126 10 335 0.0 11.3 0.00 0.00 0.00 44 1012.3
20260508203615 10 303 0.0 14.5 0.00 0.00 0.00 42 1012.4
20260508203140 10 353 0.0 14.5 0.00 0.00 0.00 43 1012.4
20260508203058 10 339 0.0 14.5 0.00 0.00 0.00 42 1013.1
20260508202659 10 352 1.6 14.5 0.00 0.00 0.00 45 1012.4
20260508202123 10 341 6.4 14.5 0.00 0.00 0.00 42 1012.4
20260508201631 10 32 1.6 9.7 0.00 0.00 0.00 42 1012.4
20260508201531 10 356 0.0 9.7 0.00 0.00 0.00 42 1013.0
20260508201114 10 351 0.0 4.8 0.00 0.00 0.00 44 1012.3
20260508200619 10 311 0.0 12.9 0.00 0.00 0.00 46 1012.4
20260508200118 10 282 0.0 12.9 0.00 0.00 0.00 46 1012.5
20260508200051 10 277 0.0 12.9 0.00 0.00 0.00 46 1013.2
20260508195623 10 3 1.6 11.3 0.00 0.00 0.00 44 1012.5
20260508195137 10 5 1.6 14.5 0.00 0.00 0.00 43 1012.4
20260508194620 10 351 1.6 14.5 0.00 0.00 0.00 42 1012.4
20260508194532 10 350 3.2 14.5 0.00 0.00 0.00 44 1013.1
20260508194133 10 292 0.0 14.5 0.00 0.00 0.00 43 1012.5
20260508193640 10 346 3.2 14.5 0.00 0.00 0.00 43 1012.6
20260508193135 10 348 1.6 12.9 0.00 0.00 0.00 44 1012.4
20260508193029 10 347 0.0 12.9 0.00 0.00 0.00 44 1013.1
20260508192620 10 350 3.2 12.9 0.00 0.00 0.00 42 1012.4
20260508192201 10 276 1.6 12.9 0.00 0.00 0.00 43 1012.5
20260508191640 10 358 1.6 11.3 0.00 0.00 0.00 42 1012.4
20260508190649 10 351 3.2 14.5 0.00 0.00 0.00 43 1012.5
20260508190150 10 34 1.6 11.3 0.00 0.00 0.00 46 1012.5
20260508190057 10 34 1.6 11.3 0.00 0.00 0.00 47 1013.2
20260508185629 10 12 0.0 11.3 0.00 0.00 0.00 47 1012.6
20260508185132 10 261 0.0 11.3 0.00 0.00 0.00 48 1012.6
20260508184635 10 351 0.0 11.3 0.00 0.00 0.00 49 1012.6
20260508184549 9 352 1.6 11.3 0.00 0.00 0.00 48 1013.3
20260508184117 9 212 1.6 8.0 0.00 0.00 0.00 49 1012.7
20260508183620 9 34 0.0 8.0 0.00 0.00 0.00 51 1012.7
20260508183155 9 18 1.6 8.0 0.00 0.00 0.00 49 1012.8
20260508183054 8 18 1.6 8.0 0.00 0.00 0.00 49 1013.5
20260508182638 9 289 0.0 6.4 0.00 0.00 0.00 50 1012.7
20260508182129 9 319 1.6 9.7 0.00 0.00 0.00 53 1012.8
20260508181614 9 351 0.0 12.9 0.00 0.00 0.00 50 1012.8
20260508181114 9 353 3.2 12.9 0.00 0.00 0.00 51 1012.8
20260508180620 8 39 0.0 0.0 0.00 0.00 0.00 52 1012.8
20260508180130 8 336 0.0 9.7 0.00 0.00 0.00 51 1012.9
20260508180018 8 336 0.0 12.9 0.00 0.00 0.00 51 1013.6
20260508175649 8 287 1.6 12.9 0.00 0.00 0.00 52 1012.9
20260508175145 8 351 0.0 9.7 0.00 0.00 0.00 52 1012.8
20260508174639 8 349 1.6 9.7 0.00 0.00 0.00 51 1012.8
20260508174512 8 349 1.6 9.7 0.00 0.00 0.00 52 1013.5
20260508174132 8 352 3.2 9.7 0.00 0.00 0.00 50 1012.8
20260508173642 8 12 0.0 9.7 0.00 0.00 0.00 52 1012.9
20260508173143 8 5 1.6 9.7 0.00 0.00 0.00 51 1012.9
20260508173102 8 5 1.6 9.7 0.00 0.00 0.00 51 1013.6
20260508172629 8 301 0.0 8.0 0.00 0.00 0.00 53 1012.9
20260508172129 8 339 1.6 11.3 0.00 0.00 0.00 51 1012.9
20260508171639 8 349 3.2 11.3 0.00 0.00 0.00 52 1012.9
20260508171522 8 349 1.6 11.3 0.00 0.00 0.00 51 1013.6
20260508171121 8 33 0.0 1.6 0.00 0.00 0.00 54 1012.9
20260508170659 8 35 0.0 8.0 0.00 0.00 0.00 52 1012.9
20260508170120 8 34 0.0 8.0 0.00 0.00 0.00 51 1012.8
20260508170059 8 34 0.0 9.7 0.00 0.00 0.00 51 1013.5
20260508165623 8 356 0.0 11.3 0.00 0.00 0.00 52 1012.9
20260508165137 8 348 1.6 11.3 0.00 0.00 0.00 52 1012.9
20260508164618 8 351 0.0 3.2 0.00 0.00 0.00 53 1012.9
20260508164546 8 351 0.0 3.2 0.00 0.00 0.00 53 1013.6
20260508164119 8 349 0.0 1.6 0.00 0.00 0.00 54 1012.8
20260508163650 8 349 0.0 0.0 0.00 0.00 0.00 56 1012.8
20260508163129 8 349 0.0 6.4 0.00 0.00 0.00 54 1012.9
20260508163053 7 349 0.0 6.4 0.00 0.00 0.00 54 1013.6
20260508162620 8 351 0.0 9.7 0.00 0.00 0.00 54 1013.0
20260508161631 8 357 3.2 11.3 0.00 0.00 0.00 53 1012.8
20260508161525 8 357 0.0 8.0 0.00 0.00 0.00 53 1013.6
20260508161118 8 337 0.0 12.9 0.00 0.00 0.00 53 1012.9
20260508160648 8 347 1.6 12.9 0.00 0.00 0.00 52 1012.9
20260508160121 8 341 3.2 19.3 0.00 0.00 0.00 52 1012.9
20260508160043 8 5 1.6 19.3 0.00 0.00 0.00 53 1013.6
20260508155623 8 354 4.8 19.3 0.00 0.00 0.00 52 1012.9
20260508155142 9 291 0.0 8.0 0.00 0.00 0.00 54 1012.8
20260508154619 9 358 0.0 8.0 0.00 0.00 0.00 55 1012.8
20260508154510 8 360 0.0 8.0 0.00 0.00 0.00 55 1013.3
20260508154140 9 3 1.6 11.3 0.00 0.00 0.00 54 1012.6
20260508153636 9 339 1.6 16.1 0.00 0.00 0.00 54 1012.7
20260508153136 9 340 3.2 16.1 0.00 0.00 0.00 56 1012.7
20260508153102 8 344 3.2 16.1 0.00 0.00 0.00 53 1013.3
20260508152622 9 328 3.2 12.9 0.00 0.00 0.00 52 1012.8
20260508152128 9 3 3.2 20.9 0.00 0.00 0.00 52 1012.6
20260508151615 9 15 1.6 20.9 0.00 0.00 0.00 53 1012.6
20260508151541 9 303 3.2 20.9 0.00 0.00 0.00 56 1013.3
20260508151131 9 360 1.6 9.7 0.00 0.00 0.00 55 1012.6
20260508150644 8 352 0.0 16.1 0.00 0.00 0.00 58 1012.5
20260508150118 8 344 4.8 16.1 0.00 0.00 0.00 55 1012.6
20260508150033 8 356 3.2 12.9 0.00 0.00 0.00 55 1013.3
20260508145127 8 346 11.3 16.1 0.00 0.00 0.00 56 1012.8
20260508144628 8 118 0.0 11.3 0.00 0.00 0.00 57 1012.8
20260508144524 7 115 0.0 11.3 0.00 0.00 0.00 57 1013.4
20260508144125 7 93 0.0 8.0 0.00 0.00 0.00 61 1012.8
20260508143628 7 348 0.0 11.3 0.00 0.00 0.00 61 1012.9
20260508143122 7 350 6.4 11.3 0.00 0.00 0.00 62 1012.9
20260508143059 7 18 4.8 11.3 0.00 0.00 0.00 62 1013.5
20260508142617 7 211 0.0 6.4 0.00 0.00 0.00 65 1012.9
20260508142131 7 211 0.0 8.0 0.00 0.00 0.00 63 1013.0
20260508141618 7 341 1.6 8.0 0.00 0.00 0.00 63 1013.0
20260508141537 6 341 0.0 8.0 0.00 0.00 0.00 63 1013.6
20260508141144 6 341 0.0 8.0 0.00 0.00 0.00 64 1013.0
20260508140616 6 341 1.6 8.0 0.00 0.00 0.00 63 1013.1
20260508140158 6 332 0.0 4.8 0.00 0.00 0.00 66 1013.1
20260508140116 6 335 0.0 4.8 0.00 0.00 0.00 66 1013.7
20260508135619 6 337 0.0 8.0 0.00 0.00 0.00 65 1013.1
20260508135138 6 337 0.0 8.0 0.00 0.00 0.00 67 1013.0
20260508134621 6 343 1.6 6.4 0.00 0.00 0.00 67 1013.1
20260508134552 6 343 1.6 6.4 0.00 0.00 0.00 68 1013.7
20260508134119 6 342 0.0 0.0 0.00 0.00 0.00 68 1013.1
20260508133616 6 343 0.0 9.7 0.00 0.00 0.00 69 1013.1
20260508133036 6 346 0.0 11.3 0.00 0.00 0.00 69 1013.7